Voltar ao catálogo

COSMOS 1285 DEB

LostHEO
NORAD 33523·DEBRIS·🇷🇺 Russia

Lançado Aug 4, 1981 de Plesetsk Cosmodrome

Loading…

Próximas Passagens (próximas 24 horas)

TLE

ObsoletoSource: Space-Track

Época: Jul 31, 2011, 20:15 UTC

1 33523U 81071Y   11212.84433352 -.00000341  00000-0  10000-3 0  9995
2 33523  67.5265  29.1603 6097445 133.4005 289.5488  1.98022195 75756

Acompanhe COSMOS 1285 DEB em tempo real com AllMySat

Download on the App Store